This demonstration page uses our WeatherBlox Daily Observations layout. Learn more.

Left ArrowRight Arrow

Hourly Observations for November 29, 2016

Temp ( °F °C ) Dew Point ( °F °C ) Humidity (%) Winds ( mph kmh ) Pressure ( in mb ) Visibility ( mi km ) Precip ( " mm )
12:51 am 00:51 Cloudy 43 6.1 35 1.7 74 74 NW 10 17 29.74 1007 10 16.0934 0.01 0.254
1:51 am 01:51 Cloudy 43 6.1 35 1.7 74 74 NW 8 13 29.75 1007 10 16.0934 N/A
2:51 am 02:51 Cloudy 44 6.7 36 2.2 73 73 NW 10 17 29.74 1007 10 16.0934 N/A
3:51 am 03:51 Cloudy 43 6.1 35 1.7 74 74 W 6 9 29.74 1007 10 16.0934 N/A
4:51 am 04:51 Mostly Cloudy 41 5 35 1.7 79 79 NW 5 7 29.75 1008 10 16.0934 N/A
5:51 am 05:51 Clear 40 4.4 34 1.1 79 79 NW 8 13 29.77 1008 10 16.0934 N/A
6:51 am 06:51 Clear 40 4.4 34 1.1 79 79 NNW 8 13 29.79 1009 10 16.0934 N/A
7:51 am 07:51 Sunny 42 5.6 34 1.1 73 73 WNW 14 22 29.82 1010 10 16.0934 N/A
8:51 am 08:51 Sunny 45 7.2 34 1.1 66 66 WNW 15 24 29.85 1011 10 16.0934 N/A
9:51 am 09:51 Sunny 48 8.9 31 -0.6 52 52 WNW 20 31 29.86 1011 10 16.0934 N/A
10:51 am 10:51 Sunny 51 10.6 27 -2.8 39 39 NW 17 28 29.87 1012 10 16.0934 N/A
11:51 am 11:51 Sunny 52 11.1 21 -6.1 30 30 NW 20 31 29.87 1011 10 16.0934 N/A
12:51 pm 12:51 Sunny 54 12.2 16 -8.9 22 22 WNW 24 39 29.85 1011 10 16.0934 N/A
1:51 pm 13:51 Sunny 54 12.2 14 -10 20 20 WNW 17 28 29.85 1011 10 16.0934 N/A
2:51 pm 14:51 Sunny 53 11.7 15 -9.4 22 22 WNW 16 26 29.86 1011 10 16.0934 N/A
3:51 pm 15:51 Sunny 52 11.1 16 -8.9 24 24 WNW 17 28 29.88 1012 10 16.0934 N/A
4:51 pm 16:51 Sunny 50 10 17 -8.3 27 27 NW 15 24 29.9 1012 10 16.0934 N/A
5:51 pm 17:51 Clear 47 8.3 17 -8.3 30 30 NNW 10 17 29.93 1014 10 16.0934 N/A
6:51 pm 18:51 Clear 42 5.6 19 -7.2 40 40 WNW 9 15 29.98 1015 10 16.0934 N/A
7:51 pm 19:51 Clear 41 5 19 -7.2 41 41 NW 7 11 29.99 1016 10 16.0934 N/A
8:51 pm 20:51 Clear 38 3.3 20 -6.7 48 48 NW 7 11 30.02 1017 10 16.0934 N/A
9:51 pm 21:51 Clear 34 1.1 20 -6.7 56 56 N N/A 30.04 1017 10 16.0934 N/A
10:51 pm 22:51 Clear 36 2.2 19 -7.2 50 50 N 5 7 30.05 1018 10 16.0934 N/A
11:51 pm 23:51 Clear with Light Wintry Mix 33 0.6 19 -7.2 56 56 N N/A 30.05 1018 10 16.0934 N/A

Powered by AerisWeather